Location: Terra Rouge Observatory
(46.0000°N, 62.7500°W)
Time: 12:18:06
(UTC-03:00)

NOSS 3-1 (A) - Visible Passes

Search period start: 31 August 2015 00:00
Search period end: 10 September 2015 00:00
Orbit: 874 x 1339 km, 63.4° (Epoch: 29 August)

Date Brightness Start Highest point End Pass type
(mag) Time Alt. Az. Time Alt. Az. Time Alt. Az.
31 Aug 6.0 01:39:35 10° NW 01:44:17 19° N 01:49:17 10° NE visible
31 Aug 6.0 03:32:22 10° NNW 03:37:53 24° NNE 03:43:56 10° ENE visible
31 Aug 4.8 05:23:17 10° NW 05:30:30 56° NE 05:38:27 10° ESE visible
31 Aug 3.9 21:10:00 10° S 21:15:24 37° ESE 21:21:22 10° NE visible
31 Aug 4.3 23:00:11 10° WSW 23:06:09 51° NW 23:12:47 10° NE visible
01 Sep 5.9 00:53:55 10° WNW 00:58:51 21° NNW 01:04:06 10° NNE visible
01 Sep 6.1 02:47:26 10° NW 02:52:29 21° NNE 02:57:58 10° ENE visible
01 Sep 5.2 04:38:38 10° NNW 04:45:29 42° NE 04:53:01 10° ESE visible
01 Sep 4.4 20:26:34 10° SSE 20:31:03 23° ESE 20:36:01 10° ENE visible
01 Sep 3.7 22:15:13 10° SW 22:21:16 73° NW 22:28:03 10° NE visible
02 Sep 5.6 00:08:14 10° WNW 00:13:30 25° NNW 00:19:09 10° NNE visible
02 Sep 6.1 02:02:17 10° NW 02:07:01 19° N 02:12:07 10° NE visible
02 Sep 5.6 03:53:57 10° NNW 04:00:20 33° NNE 04:07:21 10° E visible
02 Sep 4.1 05:44:44 10° NW 05:52:14 89° SW 06:00:26 10° SE visible
02 Sep 3.4 21:30:34 10° SSW 21:36:34 77° SE 21:43:16 10° NE visible
02 Sep 5.2 23:22:39 10° W 23:28:14 32° NNW 23:34:20 10° NNE visible
03 Sep 6.1 01:16:54 10° NW 01:21:32 19° N 01:26:29 10° NE visible
03 Sep 5.8 03:09:14 10° NNW 03:15:04 26° NNE 03:21:29 10° E visible
03 Sep 4.4 05:00:02 10° NW 05:07:25 68° NE 05:15:31 10° SE visible
03 Sep 3.6 20:46:17 10° SSW 20:52:01 49° ESE 20:58:22 10° NE visible
03 Sep 4.7 22:37:16 10° WSW 22:43:07 42° NW 22:49:35 10° NNE visible
04 Sep 6.0 00:31:18 10° WNW 00:36:04 20° N 00:41:09 10° NE visible
04 Sep 6.0 02:24:23 10° NNW 02:29:42 22° NNE 02:35:31 10° ENE visible
04 Sep 4.9 04:15:23 10° NNW 04:22:29 50° NE 04:30:17 10° ESE visible
04 Sep 4.2 20:02:30 10° S 20:07:36 31° ESE 20:13:14 10° NE visible
04 Sep 4.1 21:52:07 10° SW 21:58:09 58° NW 22:04:52 10° NE visible
04 Sep 5.8 23:45:37 10° WNW 23:50:40 23° NNW 23:56:04 10° NNE visible
05 Sep 6.1 01:39:22 10° NW 01:44:16 20° N 01:49:35 10° NE visible
05 Sep 5.3 03:30:44 10° NNW 03:37:24 38° NE 03:44:45 10° ESE visible
05 Sep 4.0 05:21:33 10° NW 05:29:02 73° SW 05:37:10 10° SSE visible
05 Sep 3.6 21:07:16 10° SW 21:13:20 84° NW 21:20:07 10° NE visible
05 Sep 5.5 22:59:58 10° W 23:05:21 27° NNW 23:11:10 10° NNE visible
06 Sep 6.1 00:54:08 10° NW 00:58:48 19° N 01:03:48 10° NE visible
06 Sep 5.6 02:46:02 10° NNW 02:52:13 30° NNE 02:59:00 10° E visible
06 Sep 4.1 04:36:48 10° NW 04:44:17 82° NE 04:52:29 10° SE visible
06 Sep 3.5 20:22:46 10° SSW 20:28:42 65° ESE 20:35:17 10° NE visible
06 Sep 5.1 22:14:27 10° W 22:20:08 35° NNW 22:26:23 10° NNE visible
07 Sep 6.0 00:08:39 10° NW 00:13:20 19° N 00:18:17 10° NE visible
07 Sep 5.8 02:01:16 10° NNW 02:06:54 25° NNE 02:13:05 10° ENE visible
07 Sep 4.5 03:52:08 10° NW 03:59:25 60° NE 04:07:26 10° SE visible
07 Sep 4.4 05:43:21 10° NW 05:50:23 41° WSW 05:57:48 10° S visible
07 Sep 4.6 21:29:09 10° WSW 21:35:04 47° NW 21:41:39 10° NNE visible
07 Sep 5.9 23:23:01 10° WNW 23:27:52 21° NNW 23:33:04 10° NNE visible
08 Sep 6.0 01:16:22 10° NNW 01:21:31 21° NNE 01:27:07 10° ENE visible
08 Sep 4.9 03:07:29 10° NNW 03:14:26 45° NE 03:22:05 10° ESE visible
08 Sep 4.0 04:58:24 10° NW 05:05:48 59° WSW 05:13:46 10° SSE visible
08 Sep 3.9 20:44:07 10° SW 20:50:10 67° NW 20:56:56 10° NE visible
08 Sep 5.7 22:37:19 10° WNW 22:42:30 24° NNW 22:48:03 10° NNE visible
09 Sep 6.0 00:31:16 10° NW 00:36:03 19° N 00:41:13 10° NE visible
09 Sep 5.3 02:22:49 10° NNW 02:29:18 35° NNE 02:36:27 10° E visible
09 Sep 3.9 04:13:36 10° NW 04:21:07 83° SW 04:29:18 10° SSE visible
09 Sep 5.1 06:05:55 10° WNW 06:11:29 21° WSW 06:16:59 10° SSW visible
09 Sep 3.5 19:59:23 10° SSW 20:05:25 84° SE 20:12:10 10° NE visible
09 Sep 5.4 21:51:43 10° W 21:57:13 30° NNW 22:03:12 10° NNE visible
09 Sep 6.0 23:45:56 10° NW 23:50:34 19° N 23:55:32 10° NE visible
